Leominster, MA

6:52 AM EST on December 07, 2016 (GMT -0500)
Fitchburg Municipal

Weather History for KFIT - September, 2013

Change the Weather History Date:

Saturday, September 7, 2013

  Actual Average (KORH) Record (KORH)
Temperature  
Mean Temperature 64 °F 64 °F  
Max Temperature 80 °F 73 °F 90 °F (1945)
Min Temperature 48 °F 56 °F 41 °F (1942)
Degree Days  
Heating Degree Days 1 3  
Month to date heating degree days 16  
Since 1 July heating degree days 55  
Cooling Degree Days 0 2  
Month to date cooling degree days 18  
Year to date cooling degree days 444  
Growing Degree Days 14 (Base 50)    
Moisture  
Dew Point 48 °F    
Average Humidity 56    
Maximum Humidity 86    
Minimum Humidity 31    
Precipitation  
Precipitation 0.00 in 0.11 in 1.26 in (1954)
Month to date precipitation 0.79  
Year to date precipitation 32.15  
Sea Level Pressure  
Sea Level Pressure 29.99 in    
Wind  
Wind Speed 2 mph (WSW)    
Max Wind Speed 8 mph    
Max Gust Speed -    
Visibility 10 miles    
Events Rain    
T = Trace of Precipitation, MM = Missing Value Source: NWS Daily Summary

Daily Weather History Graph

Daily Weather History Graph

Search for Another Location

Airport or City:

Trip Planner

Search our weather history database for the weather conditions in past years. The results will help you decide how hot, cold, wet, or windy it might be!

Date:

Astronomy

Sep. 07, 2013 Rise Set
Actual Time 6:18 AM EDT 7:10 PM EDT
Civil Twilight 5:49 AM EDT 7:39 PM EDT
Nautical Twilight 5:15 AM EDT 8:13 PM EDT
Astronomical Twilight 4:40 AM EDT 8:48 PM EDT
Moon 8:33 AM EDT 8:02 PM EDT
Length of Visible Light 13h 49m
Length of Day
12h 51m
Waxing Crescent, 5% of the Moon is Illuminated
Sep 7
Waxing Crescent
Sep 12
First Quarter
Sep 19
Full
Sep 26
Last Quarter
Oct 4
New

Hourly Weather History & Observations

Time (EDT) Temp. Dew Point Humidity Pressure Visibility Wind Dir Wind Speed Gust Speed Precip Events Conditions
12:52 AM 50.0 °F 45.0 °F 83% 30.10 in 10.0 mi Calm Calm - N/A   Clear
1:52 AM 48.9 °F 45.0 °F 86% 30.09 in 10.0 mi Calm Calm - N/A   Clear
2:52 AM 48.9 °F 44.1 °F 83% 30.08 in 10.0 mi Calm Calm - N/A   Clear
3:52 AM 50.0 °F 45.0 °F 83% 30.08 in 10.0 mi Calm Calm - N/A   Clear
4:52 AM 50.0 °F 44.1 °F 80% 30.07 in 10.0 mi Calm Calm - N/A   Clear
5:52 AM 50.0 °F 45.0 °F 83% 30.06 in 10.0 mi Calm Calm - N/A   Clear
6:52 AM 53.1 °F 45.0 °F 74% 30.07 in 10.0 mi NNW 6.9 mph - N/A   Clear
7:52 AM 59.0 °F 45.0 °F 60% 30.07 in 10.0 mi North 3.5 mph - N/A   Clear
8:52 AM 63.0 °F 46.0 °F 54% 30.05 in 10.0 mi Variable 3.5 mph - N/A   Clear
9:52 AM 68.0 °F 45.0 °F 43% 30.04 in 10.0 mi South 4.6 mph - N/A   Clear
10:52 AM 71.1 °F 46.9 °F 42% 30.03 in 10.0 mi SW 8.1 mph - N/A   Clear
11:52 AM 75.9 °F 46.0 °F 35% 30.00 in 10.0 mi Variable 5.8 mph - N/A   Clear
12:52 PM 78.1 °F 46.0 °F 32% 29.98 in 10.0 mi WSW 8.1 mph - N/A   Clear
1:52 PM 80.1 °F 46.9 °F 31% 29.96 in 10.0 mi Calm Calm - N/A   Clear
2:52 PM 79.0 °F 46.9 °F 32% 29.94 in 10.0 mi West 8.1 mph - N/A   Clear
3:52 PM 78.1 °F 50.0 °F 37% 29.93 in 10.0 mi SW 5.8 mph - N/A   Clear
4:52 PM 75.9 °F 50.0 °F 40% 29.92 in 10.0 mi WSW 6.9 mph - N/A   Clear
5:52 PM 75.0 °F 53.1 °F 46% 29.92 in 10.0 mi SW 4.6 mph - N/A   Partly Cloudy
6:52 PM 73.0 °F 53.1 °F 49% 29.91 in 10.0 mi SW 4.6 mph - N/A   Scattered Clouds
7:52 PM 72.0 °F 52.0 °F 49% 29.91 in 10.0 mi SW 3.5 mph - 0.00 in   Overcast
8:52 PM 70.0 °F 52.0 °F 53% 29.91 in 10.0 mi Calm Calm - N/A   Overcast
9:52 PM 70.0 °F 52.0 °F 53% 29.90 in 10.0 mi Calm Calm - 0.00 in Rain Light Rain
10:52 PM 66.9 °F 55.0 °F 66% 29.89 in 10.0 mi Calm Calm - 0.00 in   Overcast
11:52 PM 68.0 °F 51.1 °F 55% 29.87 in 10.0 mi South 4.6 mph - N/A   Overcast